Probability
0 0 0 0 0 0 1 2 2 1 0 0 0 0 0 0 1 3 3 2 1 1 1 0 0 0 0 0 0 0 0 0 0 0 0 0 0 0 0 0 0 0 0
0 0 0 0 0 0 0 1 1 1 0 0 0 0 0 1 2 3 2 1 0 0 0 0 0 0 0 0 0 0 0 0 0 0 0 0 0 0 0 0 0 0 0
0 0 0 0 0 0 0 0 0 0 0 0 0 0 1 2 3 3 2 0 0 0 0 0 0 0 0 0 0 0 0 0 0 0 0 0 0 0 0 0 0 0 0
0 0 0 0 0 0 0 0 0 0 0 0 0 0 1 2 2 2 1 0 0 0 0 0 0 0 0 0 0 0 0 0 0 0 0 0 0 0 0 0 0 0 0
0 0 0 0 0 0 0 0 0 0 0 0 0 0 0 1 1 1 1 0 0 0 0 0 0 0 0 0 0 0 0 0 0 0 0 0 0 0 0 0 0 0 0
0 0 0 0 0 0 0 0 0 0 0 0 0 0 0 0 0 0 0 0 0 0 0 0 0 0 0 0 0 0 0 0 0 0 0 0 0 0 0 0 0 0 0
0 0 0 0 0 0 0 0 0 0 0 0 0 0 0 0 0 0 0 0 0 0 0 0 0 0 0 0 0 0 0 0 0 0 0 0 0 0 0 0 0 0 0
1 0 0 0 0 0 0 0 0 0 0 0 0 0 0 0 0 0 0 0 0 0 0 0 0 0 0 0 0 0 0 0 0 0 0 0 0 0 0 0 0 0 0
2 1 0 0 0 0 0 0 0 0 0 0 0 0 0 0 0 0 0 0 0 0 0 0 0 0 0 0 0 0 0 0 0 0 0 0 0 0 0 0 0 0 0
2 1 0 0 0 0 0 0 0 0 0 0 0 0 0 0 0 0 0 0 0 0 0 0 0 0 0 0 0 0 0 0 0 0 0 0 0 0 0 0 0 0 0
3 1 0 0 0 0 0 0 0 0 0 0 0 0 0 0 0 0 0 0 0 0 0 0 0 0 0 0 0 0 0 0 0 0 0 0 0 0 0 0 0 0 0
3 2 0 0 0 0 0 0 0 0 0 0 0 0 0 0 0 0 0 0 0 0 0 0 0 0 0 0 0 0 0 0 0 0 0 0 0 0 0 0 0 0 0
3 2 1 0 0 0 0 0 0 0 0 0 0 0 0 0 0 0 0 0 0 0 0 0 0 0 0 0 0 0 0 0 0 0 0 0 0 0 0 0 0 0 0
2 2 1 0 0 0 0 0 0 0 0 0 0 0 0 0 0 0 0 0 0 0 0 0 0 0 0 0 0 0 0 0 0 0 0 0 0 0 0 0 0 0 0
2 2 1 0 0 0 0 0 0 0 0 0 0 0 0 0 0 0 0 0 0 0 0 0 0 0 0 0 0 0 0 0 0 0 0 0 0 0 0 0 0 0 0
3 2 1 0 0 0 0 0 0 0 0 0 0 0 0 0 0 0 0 0 0 0 0 0 0 0 0 0 0 0 0 0 0 0 0 0 0 0 0 0 0 0 0
2 1 0 0 0 0 0 0 0 0 0 0 0 0 0 0 0 0 0 0 0 0 0 0 0 0 0 0 0 0 0 0 0 0 0 0 0 0 0 0 0 0 0
2 1 0 0 0 0 0 0 0 0 0 0 0 0 0 0 0 0 0 0 0 0 0 0 0 0 0 0 0 0 0 0 0 0 0 0 0 0 0 0 0 0 0
2 1 0 0 0 0 0 0 0 0 0 0 0 0 0 0 0 0 0 0 0 0 0 0 0 0 0 0 0 0 0 0 0 0 0 0 0 0 0 0 0 0 0
3 3 2 2 1 1 1 1 1 1 1 1 1 0 1 1 1 0 0 0 0 0 0 0 0 0 0 0 0 0 0 0 0 0 0 0 0 0 0 0 0 0 0
6 6 7 6 4 4 4 3 3 3 2 2 2 1 2 2 2 1 0 0 0 0 0 0 0 0 0 0 0 0 0 0 0 0 0 0 0 0 0 0 0 0 0
11 12 12 12 10 8 8 7 6 5 4 4 3 3 4 4 3 2 1 1 0 0 0 0 0 0 0 0 0 0 0 0 0 0 0 0 0 0 0 0 0 0 0
18 17 16 15 14 13 12 11 11 10 8 7 6 5 6 5 4 3 2 1 1 0 0 0 0 0 0 0 0 0 0 0 0 0 0 0 0 0 0 0 0 0 0
25 22 19 18 16 15 15 16 16 15 12 10 8 6 5 5 4 4 3 3 2 1 1 1 0 0 0 0 0 0 0 0 0 0 0 0 0 0 0 0 0 0 0
27 24 21 20 18 16 17 18 19 17 14 11 8 4 3 2 4 5 5 3 3 2 2 1 0 0 0 0 0 0 0 0 0 0 0 0 0 0 0 0 0 0 0
27 23 21 20 19 17 17 18 19 17 15 11 6 3 1 2 4 6 5 4 3 3 2 1 0 0 0 0 0 0 0 0 0 0 0 0 0 0 0 0 0 0 0
Wind_Speed
3 3 11 13 14 15 16 17 17 17 18 18 19 19 19 18 18 18 18 17 17 17 17 17 16 16 16 16 15 15 15 14 14 15 14 14 14 14 14 15 13 11 14
6 5 12 13 14 15 16 16 17 17 18 18 18 18 18 18 17 17 17 17 17 17 17 16 16 15 15 15 15 15 15 15 14 15 14 13 14 14 14 14 13 9 14
8 6 9 13 14 14 15 16 16 16 17 17 17 17 17 17 16 16 16 16 16 16 16 15 15 15 15 15 15 15 15 15 14 14 13 9 10 13 14 14 14 13 13
8 6 8 14 14 14 14 15 15 16 16 16 16 16 16 16 16 16 16 15 15 15 15 15 15 15 15 15 14 14 14 14 14 13 8 7 8 13 14 14 14 13 13
7 5 8 14 14 14 14 14 14 15 15 15 15 15 15 15 15 15 15 14 14 14 15 15 14 15 14 14 13 13 14 14 14 11 8 7 7 12 13 14 14 13 13
6 5 8 14 14 13 13 13 14 14 14 14 14 14 14 14 14 14 14 14 14 14 14 14 14 14 13 13 13 13 13 14 12 8 8 7 7 11 13 13 13 13 13
6 5 7 14 13 13 13 13 13 13 13 13 13 13 13 13 13 13 13 13 13 13 13 13 13 12 12 12 12 12 13 13 9 8 7 6 7 11 13 13 13 12 12
7 6 7 13 13 12 12 13 12 12 12 12 13 13 12 12 12 12 12 12 12 12 12 12 12 11 11 11 11 11 12 11 9 8 7 6 8 11 12 12 12 12 12
6 5 5 6 8 11 12 12 12 11 11 12 12 12 11 11 11 11 11 11 11 11 11 11 11 10 10 10 10 11 11 11 7 5 6 5 8 10 11 11 11 11 11
5 5 4 4 5 5 6 11 11 11 11 11 11 11 11 10 10 10 9 9 10 10 10 10 10 10 9 9 9 10 11 10 6 6 4 5 9 10 10 10 10 10 10
6 4 4 4 4 4 4 7 8 10 9 9 8 10 8 4 5 5 7 8 9 8 8 9 9 9 8 8 9 9 8 4 6 4 3 6 8 9 9 9 9 9 9
9 6 4 5 5 4 4 4 3 3 4 4 4 5 4 3 3 4 5 7 8 7 7 7 7 7 6 4 6 7 4 5 4 3 3 7 7 8 8 8 8 8 8
10 9 6 5 5 4 3 3 2 2 3 3 4 4 4 3 2 3 2 3 4 4 4 4 4 3 3 3 3 3 4 4 2 2 4 7 6 7 8 7 7 7 8
10 9 7 6 5 4 3 3 3 2 2 2 3 4 3 2 2 2 1 2 2 2 2 2 2 2 3 3 4 4 4 3 2 2 3 6 6 7 7 7 7 7 7
10 10 8 7 6 4 4 3 3 3 3 3 2 3 3 2 2 2 1 1 1 1 1 2 2 2 2 3 3 4 4 4 3 2 2 6 6 6 6 7 6 6 6
11 10 9 8 7 5 4 3 3 3 3 2 2 3 3 3 2 2 1 1 0 1 1 1 2 2 2 2 2 3 3 3 3 3 2 3 5 5 6 6 6 6 6
11 9 9 8 7 7 6 5 4 3 3 3 3 3 3 3 3 2 2 1 1 1 1 2 2 2 2 2 2 2 2 3 3 3 3 2 2 4 5 6 6 6 6
9 10 10 10 9 7 6 5 3 3 3 3 3 3 4 4 4 3 2 2 1 1 1 2 2 2 1 2 1 1 1 2 3 3 2 2 2 2 3 6 6 5 6
11 10 10 9 9 8 7 5 4 3 4 3 3 3 4 4 5 3 2 2 2 2 2 2 1 2 2 1 1 1 1 1 2 3 3 3 3 2 2 3 5 6 6
10 9 10 9 8 7 5 4 3 2 3 3 3 4 4 4 5 4 3 3 3 2 2 1 2 1 1 2 1 1 0 1 2 2 3 3 3 4 4 3 3 4 6
10 10 10 9 8 7 5 5 4 4 3 3 3 4 5 5 5 4 3 3 3 3 3 3 2 2 1 1 2 1 1 1 2 3 3 3 4 5 4 4 3 3 3
13 12 11 10 10 9 7 5 3 3 3 3 3 3 5 5 5 5 5 4 4 3 3 3 3 2 1 2 2 2 1 2 2 2 3 4 5 4 5 6 5 5 4
14 14 13 12 10 9 8 4 3 3 2 2 2 3 4 5 5 5 5 5 4 4 4 4 4 4 3 1 1 3 2 3 2 2 3 4 4 4 5 5 6 6 6
14 12 11 11 10 9 9 8 7 6 5 5 4 4 4 5 5 6 5 5 5 4 4 4 4 3 4 3 1 1 2 3 2 2 2 2 4 5 5 5 6 6 7
12 11 10 10 9 9 9 10 8 5 4 3 3 4 4 4 5 5 5 5 5 4 5 5 4 4 3 4 3 2 2 1 2 2 2 2 2 3 4 5 5 5 6
10 10 9 10 9 9 10 9 9 8 7 5 5 5 4 3 3 5 5 5 5 4 5 5 5 5 4 4 3 3 3 3 3 3 3 3 3 3 3 4 5 5 5
Wind_Direction
134 133 118 109 104 102 101 100 100 101 104 105 106 107 106 105 105 104 103 103 102 100 99 98 99 101 101 101 100 101 102 103 105 106 106 106 107 108 108 107 105 105 110
139 137 122 114 109 106 105 104 103 102 106 106 107 107 107 106 105 104 103 103 103 102 101 99 99 99 99 99 99 99 100 101 103 103 102 102 104 105 106 107 109 110 112
130 130 124 119 114 110 108 108 106 104 104 105 106 107 107 107 106 104 103 103 104 104 103 101 99 99 99 99 99 98 99 99 101 100 96 93 101 104 105 107 109 110 111
129 125 127 125 119 115 112 110 109 108 106 105 107 107 107 106 106 104 103 103 104 104 103 102 101 100 99 99 100 100 99 99 101 98 90 92 100 106 105 106 107 109 111
122 122 135 128 124 120 117 114 112 111 110 109 108 108 106 106 105 104 103 104 104 103 103 103 103 102 101 101 101 101 102 101 100 94 88 86 92 105 107 106 105 106 108
121 126 137 131 128 125 122 119 117 116 114 113 111 110 109 108 107 107 106 106 104 103 103 103 103 103 101 102 103 103 104 103 95 92 90 92 97 106 107 107 106 104 104
126 128 136 135 133 129 126 123 121 120 119 117 115 113 111 111 111 110 109 107 106 105 104 103 103 103 103 105 105 106 107 106 98 94 91 93 101 108 109 109 107 106 104
130 129 136 140 138 135 131 128 126 124 123 122 119 117 115 113 112 111 110 109 108 106 105 105 105 103 106 108 109 112 113 113 107 102 95 97 107 109 110 109 108 107 105
124 124 128 136 140 140 137 135 132 129 127 125 122 122 120 118 116 113 111 111 110 108 107 108 107 104 107 111 113 118 117 115 108 108 108 103 112 114 114 112 111 112 111
121 121 123 121 121 128 136 141 138 136 134 131 129 127 124 121 117 115 111 112 110 109 108 109 107 104 104 110 114 119 117 112 107 106 107 118 121 120 119 117 116 116 114
146 132 129 125 123 123 134 148 142 142 139 133 131 129 113 88 90 104 117 117 114 111 108 106 103 101 99 105 112 115 110 105 112 110 114 127 128 126 125 123 121 119 117
168 162 147 141 138 137 148 124 110 112 109 99 94 99 91 87 87 100 108 115 110 104 101 99 95 91 86 86 101 104 101 113 113 119 130 134 134 132 130 128 126 125 122
171 171 164 157 150 144 129 123 105 98 99 98 103 103 99 88 77 71 66 73 73 76 68 75 75 76 88 99 102 109 117 116 115 126 137 143 142 140 137 136 133 131 129
172 178 170 166 157 153 138 132 125 121 120 120 121 121 114 106 96 89 83 75 68 65 71 73 77 80 93 109 119 125 128 128 127 122 146 152 151 150 148 145 143 140 137
178 180 176 171 167 159 147 153 148 147 148 146 141 141 138 134 134 123 109 86 77 71 80 88 86 92 98 111 129 138 144 144 145 141 153 166 164 161 158 156 157 157 154
184 183 177 177 172 164 163 163 157 159 155 154 159 165 159 153 154 149 146 127 86 93 101 103 103 105 102 117 130 139 148 152 154 154 159 180 180 175 172 171 173 172 172
185 181 180 180 172 171 174 177 169 167 163 173 175 176 173 170 169 164 165 171 174 118 112 101 98 97 112 123 127 141 151 161 166 169 170 180 195 197 193 191 190 190 191
178 179 182 187 178 179 178 176 165 168 172 183 179 181 186 182 177 172 174 186 171 135 126 125 116 106 103 121 137 158 158 173 187 186 182 187 197 212 217 213 209 206 207
180 179 181 185 180 183 178 172 168 169 182 186 184 189 194 189 181 176 184 187 163 148 153 165 123 131 139 143 153 140 170 203 208 205 205 208 210 219 229 238 232 222 220
179 179 182 184 179 174 166 156 156 171 193 192 192 195 191 188 180 173 182 182 163 152 159 153 137 113 130 145 138 105 240 233 226 226 226 222 223 227 227 234 239 237 234
179 181 183 184 178 169 167 171 171 186 194 198 201 195 190 187 180 179 186 177 172 175 181 163 142 128 114 116 97 48 355 291 242 236 230 229 232 230 225 227 228 230 241
188 188 186 188 183 180 183 177 167 164 180 190 193 192 192 189 185 191 188 182 176 172 172 171 153 139 141 149 139 118 351 330 290 242 224 226 233 227 229 228 225 226 234
193 192 192 192 186 182 173 154 136 117 112 151 190 199 200 194 195 193 191 183 177 177 188 190 177 164 168 180 162 148 161 231 287 297 247 233 228 225 230 230 227 227 227
196 191 189 185 181 177 171 171 171 176 184 193 186 192 198 199 196 195 191 185 183 184 190 197 190 179 164 177 183 180 173 167 176 294 303 259 239 233 232 232 230 227 225
187 185 185 179 180 176 178 180 179 183 187 175 169 182 198 204 204 198 190 186 190 194 197 197 187 187 182 180 180 171 168 168 170 185 269 293 278 247 236 232 232 230 227
178 179 178 179 184 181 182 183 184 184 177 170 179 188 199 203 209 203 194 194 195 197 202 203 198 193 196 192 190 182 176 177 190 190 223 251 264 271 251 237 232 232 228